Home   Weather   Santa Cruz   Past weeks

Flag for USA Past Weather in Santa Cruz, California, USA — Yesterday and Last 2 Weeks

Now
51 °F

Fog.


Feels Like: 51 °F
Forecast: 52 / 64 °F
Wind: No wind

Location: Watsonville Municipal Airport

Current Time: Apr 23, 2017 at 2:55:55 am

Latest Report: Apr 23, 2017 at 2:38 am


Visibility: 6 mi

Pressure: 30.00 "Hg

Humidity: 100%

Dew Point: 51 °F

Location of Santa CruzLocation

Past Weather in Santa Cruz — Graph

°F

Santa Cruz Temperature Yesterday

Maximum temperature yesterday: 69 °F (at 3:53 pm)
Minimum temperature yesterday: 48 °F (at 6:53 am)
Average temperature yesterday: 58 °F

High & Low Weather Summary for the Past Weeks

 TemperatureHumidityPressure
High72 °F (Apr 20, 5:53 pm)100% (Apr 8, 1:04 am)30.30 "Hg (Apr 8, 1:04 am)
Low38 °F (Apr 14, 5:53 am)31% (Apr 14, 4:53 pm)29.92 "Hg (Apr 8, 1:04 am)
Average55 °F85%30.09 "Hg
* Reported Apr 8 1:04 am — Apr 23 1:36 am, Santa Cruz, Weather by CustomWeather, © 2017

Note: Actual official high and low records may vary slightly from our data, if they occured in-between our weather recording intervals... More about our weather records

Advertising

Santa Cruz Weather History for the Previous 24 Hours

Scroll right to see more
 ConditionsComfort  
Time TempWeatherWind HumidityBarometerVisibility
1:36 am
Sun, Apr 23
53 °FPartly cloudy.No wind100%30.00 "Hg7 mi
12:53 am53 °FFog.No wind100%29.99 "Hg6 mi
11:53 pm
Sat, Apr 22
53 °FOvercast.No wind100%30.00 "Hg7 mi
10:53 pm55 °FOvercast.No wind96%30.00 "Hg8 mi
10:22 pm53 °FPassing clouds.3 mph100%30.00 "Hg7 mi
9:53 pm55 °FClear.3 mph96%30.00 "Hg8 mi
8:53 pm55 °FPassing clouds.5 mph100%30.00 "Hg8 mi
7:53 pm58 °FOvercast.5 mph97%29.99 "Hg7 mi
6:53 pm59 °FSunny.7 mph93%29.97 "Hg7 mi
5:53 pm61 °FSunny.9 mph87%29.98 "Hg7 mi
4:53 pm66 °FSunny.9 mph78%29.97 "Hg10 mi
3:53 pm69 °FSunny.5 mph68%29.98 "Hg10 mi
2:53 pm68 °FSunny.5 mph65%30.00 "Hg10 mi
1:53 pm67 °FPassing clouds.6 mph57%30.01 "Hg10 mi
12:53 pm66 °FPassing clouds.9 mph56%30.01 "Hg10 mi
11:53 am68 °FPassing clouds.8 mph47%30.02 "Hg10 mi
10:53 am65 °FSunny.No wind54%30.03 "Hg10 mi
9:53 am62 °FScattered clouds.3 mph62%30.03 "Hg10 mi
8:53 am57 °FSunny.No wind90%30.04 "Hg10 mi
7:53 am52 °FSunny.No wind97%30.04 "Hg10 mi
6:53 am48 °FSunny.5 mph100%30.03 "Hg9 mi
5:53 am49 °FClear.3 mph100%30.02 "Hg10 mi
4:53 am49 °FClear.3 mph100%30.02 "Hg10 mi
3:53 am49 °FClear.No wind100%30.02 "Hg10 mi
2:53 am51 °FClear.3 mph96%30.02 "Hg10 mi
Weather by CustomWeather, © 2017

See weather overviewHow to use our weather pages